Starlink 32768

operational
NORAD ID: 62503 Int'l Des: 2025-003 Owner: SPXS Country: US Constellation: starlink
LEOCIRCULAR

Über Starlink 32768

Beschreibung wird geladen...

Live-Position

3D-Globus wird geladen...

Nächste Überflüge

Höhenverlauf

Altitude vs Time

uPlot chart will show altitude changes over time

Zweizeiliger Elementsatz

1 62503U 25003S 26033.63281530 .00027617 00000-0 10085-2 0 9997
2 62503 43.0004 126.6441 0001108 272.9545 87.1180 15.27607668 61197
Epoch: 2. Feb. 2026 • Age: 20 hours

Aktueller Status

Höhe 484.4 km
Geschwindigkeit 7.62 km/s
Subsatellitenpunkt -11.16°S, 163.31°E
Startdatum 6. Jan. 2025
Alter 1 years
Typ internet

Technische Details

Klassifizierung Payload
Masse 730.00 kg
Trockenmasse 700.00 kg
Gesamtmasse 730.00 kg
Länge 0.30 m
Durchmesser 4.10 m
Spannweite 29.00 m
Form Box + pan
Hersteller SPXS
Bus-Typ Starlink V2M
Phasenstatus In Orbit
Besitzer/Staat SPXS/US

Große Konstellationen

Loading constellations...